Location: Tamazert
(32.6352°N, 5.2072°W)
Time: 10:12:15
(UTC+00:00)

Courier 1B Rocket - Pass Details

Date: 03 October 2022
Orbit: 920 x 1202 km, 28.3° (Epoch: 01 December)

Event Time Altitude Azimuth Distance (km) Brightness Sun altitude
Rises 21:11:09 0° 264° (W) 3,684 8.7 -39.6°
Reaches altitude 10° 21:13:55 10° 261° (W) 2,699 7.8 -40.1°
Enters shadow 21:16:12 23° 255° (WSW) 1,920 6.8 -40.5°
